KUIPER-00410

导读 | 豆包AI

KUIPER-00410(NORAD编号68926)是亚马逊柯伊伯(Kuiper)全球卫星互联网项目的组网卫星之一。柯伊伯项目计划部署超过3200颗低轨卫星,为全球提供高速宽带互联网服务,直接竞争SpaceX星链市场。该项目采用红外激光星间链路,可支持100Gbps传输速率,搭配不同规格用户终端,最高可提供400Mbps接入速度。作为批量部署的运营卫星,KUIPER-00410运行在近地轨道,是亚马逊100亿美元卫星互联网组网计划的组成部分,助力实现全球泛在互联网覆盖,目前项目正按计划推进2026年半数卫星部署的目标。

基本信息
目录编号:
68926
目录名称:
KUIPER-00410
国际标识:
2026-098H
轨道中心:
EARTH
卫星名称:
KUIPER-00410
卫星全名:
KUIPER-00410
卫星状态:
在轨 (已飞行25 天)
发射日期:
2026-04-30 UTC
国别 :
美国 (US)
星等 :
--
轨道信息
数据来源 国际轨道数据 AOE轨道数据
星历时间 2026-05-24T04:20:22+0800
1天前
查看轨道信息
2026-05-24T05:00:00+0800
1天前
查看轨道信息
半长轴 6851.256km 6851.273km
偏心率 0.0014243 0.0014139
轨道倾角 51.874° 51.876°
近地点辐角 56.520° 56.632°
升交点赤经 185.367° 185.238°
平近点角 303.715° 95.400°
近地点 463.36km 463.448km
远地点 482.878km 482.824km
周期 94.062分钟 94.063分钟
每日圈数 15.309023 15.308966
详细信息
使用方式:
暂无
2D轨道图
3D轨道图
轨道高度分析图
轨道倾角分析图
轨道综合分析图
查看轨道综合分析图